| time (UTC) | temp F | wind direction | speed MPH | gust MPH | rain 1hr in | rain 24hr in | rain mn in | humidity % | barometer mb |
| 20260510194524 | 61 | 77 | 3.0 | 7.0 | 0.00 | 0.01 | 0.01 | 73 | 1011.1 |
| 20260510193057 | 62 | 14 | 1.0 | 8.0 | 0.00 | 0.01 | 0.01 | 70 | 1011.2 |
| 20260510191537 | 62 | 342 | 2.0 | 5.0 | 0.00 | 0.01 | 0.01 | 71 | 1011.3 |
| 20260510190059 | 62 | 342 | 3.0 | 4.0 | 0.00 | 0.01 | 0.01 | 70 | 1011.2 |
| 20260510184611 | 63 | 248 | 0.0 | 4.0 | 0.00 | 0.01 | 0.01 | 69 | 1011.2 |
| 20260510183144 | 63 | 239 | 1.0 | 6.0 | 0.00 | 0.01 | 0.01 | 68 | 1011.0 |
| 20260510181639 | 63 | 245 | 3.0 | 11.0 | 0.00 | 0.01 | 0.01 | 67 | 1010.8 |
| 20260510180132 | 63 | 255 | 5.0 | 9.0 | 0.00 | 0.01 | 0.01 | 67 | 1010.7 |
| 20260510174700 | 64 | 177 | 3.0 | 6.0 | 0.00 | 0.01 | 0.01 | 66 | 1010.5 |
| 20260510171659 | 64 | 180 | 3.0 | 11.0 | 0.00 | 0.01 | 0.01 | 65 | 1010.1 |
| 20260510170134 | 64 | 195 | 6.0 | 13.0 | 0.00 | 0.01 | 0.01 | 64 | 1010.3 |
| 20260510163048 | 65 | 92 | 10.0 | 18.0 | 0.00 | 0.01 | 0.01 | 62 | 1009.8 |
| 20260510161603 | 66 | 130 | 12.0 | 17.0 | 0.00 | 0.01 | 0.01 | 63 | 1009.7 |
| 20260510160106 | 67 | 107 | 9.0 | 14.0 | 0.00 | 0.01 | 0.01 | 63 | 1009.5 |
| 20260510154619 | 67 | 141 | 7.0 | 18.0 | 0.00 | 0.01 | 0.01 | 59 | 1009.4 |
| 20260510153107 | 67 | 152 | 9.0 | 19.0 | 0.00 | 0.01 | 0.01 | 61 | 1009.5 |
| 20260510151624 | 68 | 158 | 6.0 | 15.0 | 0.00 | 0.01 | 0.01 | 60 | 1009.5 |
| 20260510150114 | 67 | 184 | 8.0 | 21.0 | 0.00 | 0.01 | 0.01 | 61 | 1009.8 |
| 20260510144633 | 69 | 142 | 10.0 | 17.0 | 0.00 | 0.15 | 0.01 | 57 | 1009.9 |
| 20260510143053 | 68 | 136 | 9.0 | 17.0 | 0.00 | 0.15 | 0.01 | 56 | 1010.0 |
| 20260510141513 | 70 | 125 | 10.0 | 15.0 | 0.00 | 0.15 | 0.01 | 54 | 1010.1 |
| 20260510134659 | 70 | 144 | 4.0 | 17.0 | 0.00 | 0.51 | 0.01 | 48 | 1010.4 |
| 20260510131514 | 69 | 206 | 2.0 | 11.0 | 0.00 | 0.51 | 0.01 | 53 | 1010.7 |
| 20260510130013 | 69 | 143 | 7.0 | 19.0 | 0.00 | 0.51 | 0.01 | 51 | 1010.9 |
| 20260510124614 | 69 | 140 | 7.0 | 21.0 | 0.00 | 0.71 | 0.01 | 50 | 1010.9 |
| 20260510123118 | 69 | 144 | 4.0 | 14.0 | 0.00 | 0.71 | 0.01 | 52 | 1011.0 |
| 20260510121627 | 68 | 90 | 12.0 | 17.0 | 0.00 | 0.71 | 0.01 | 55 | 1011.2 |
| 20260510120124 | 67 | 155 | 7.0 | 19.0 | 0.00 | 0.71 | 0.01 | 54 | 1011.7 |
| 20260510114647 | 67 | 106 | 4.0 | 9.0 | 0.00 | 1.26 | 0.01 | 55 | 1011.8 |
| 20260510113015 | 67 | 161 | 3.0 | 9.0 | 0.00 | 1.26 | 0.01 | 49 | 1011.9 |
| 20260510111626 | 66 | 123 | 7.0 | 13.0 | 0.00 | 1.26 | 0.01 | 52 | 1012.0 |
| 20260510110057 | 67 | 110 | 11.0 | 16.0 | 0.00 | 1.26 | 0.01 | 51 | 1012.1 |
| 20260510104649 | 67 | 89 | 7.0 | 14.0 | 0.00 | 1.48 | 0.01 | 52 | 1012.1 |
| 20260510103017 | 66 | 153 | 7.0 | 11.0 | 0.00 | 1.48 | 0.01 | 53 | 1012.3 |
| 20260510101611 | 66 | 176 | 5.0 | 13.0 | 0.00 | 1.48 | 0.01 | 54 | 1012.5 |
| 20260510100003 | 65 | 132 | 7.0 | 13.0 | 0.00 | 1.48 | 0.01 | 56 | 1012.6 |
| 20260510094517 | 64 | 168 | 10.0 | 16.0 | 0.00 | 1.48 | 0.01 | 56 | 1012.6 |
| 20260510093029 | 64 | 123 | 10.0 | 13.0 | 0.00 | 1.48 | 0.01 | 57 | 1012.6 |
| 20260510091555 | 64 | 121 | 10.0 | 16.0 | 0.00 | 1.48 | 0.01 | 62 | 1012.5 |
| 20260510090033 | 64 | 140 | 6.0 | 14.0 | 0.00 | 1.48 | 0.01 | 61 | 1012.5 |
| 20260510084556 | 63 | 123 | 8.0 | 12.0 | 0.00 | 1.48 | 0.01 | 57 | 1012.4 |
| 20260510083114 | 63 | 111 | 4.0 | 11.0 | 0.00 | 1.48 | 0.01 | 63 | 1012.3 |
| 20260510081606 | 63 | 158 | 3.0 | 6.0 | 0.00 | 1.48 | 0.01 | 58 | 1012.4 |
| 20260510080155 | 62 | 163 | 3.0 | 6.0 | 0.00 | 1.48 | 0.01 | 60 | 1012.7 |
| 20260510074655 | 61 | 187 | 2.0 | 4.0 | 0.00 | 1.48 | 0.01 | 68 | 1012.6 |
| 20260510073108 | 60 | 182 | 0.0 | 4.0 | 0.00 | 1.48 | 0.01 | 69 | 1012.5 |
| 20260510071628 | 59 | 230 | 3.0 | 6.0 | 0.01 | 1.48 | 0.01 | 67 | 1012.5 |
| 20260510070109 | 57 | 227 | 5.0 | 7.0 | 0.01 | 1.48 | 0.01 | 74 | 1012.2 |
| 20260510064613 | 56 | 136 | 0.0 | 3.0 | 0.01 | 1.48 | 0.01 | 81 | 1012.2 |
| 20260510063129 | 53 | 347 | 0.0 | 2.0 | 0.01 | 1.48 | 0.01 | 88 | 1012.0 |
| 20260510061533 | 51 | 347 | 1.0 | 2.0 | 0.00 | 1.47 | 0.00 | 86 | 1012.2 |
| 20260510060151 | 50 | 347 | 0.0 | 2.0 | 0.00 | 1.47 | 0.00 | 91 | 1012.2 |
| 20260510054651 | 48 | 324 | 0.0 | 2.0 | 0.00 | 1.47 | 0.00 | 92 | 1011.9 |
| 20260510053157 | 47 | 356 | 1.0 | 2.0 | 0.00 | 1.47 | 0.00 | 92 | 1011.8 |
| 20260510051505 | 47 | 121 | 0.0 | 2.0 | 0.00 | 1.47 | 0.00 | 92 | 1011.9 |
| 20260510050040 | 47 | 284 | 1.0 | 2.0 | 0.00 | 1.47 | 0.00 | 92 | 1011.7 |
| 20260510044604 | 47 | 284 | 0.0 | 2.0 | 0.00 | 1.47 | 0.00 | 92 | 1011.7 |
| 20260510043117 | 47 | 284 | 0.0 | 5.0 | 0.00 | 1.47 | 0.00 | 92 | 1011.7 |
| 20260510041637 | 47 | 266 | 3.0 | 4.0 | 0.00 | 1.47 | 0.00 | 93 | 1011.5 |
| 20260510040017 | 47 | 264 | 1.0 | 2.0 | 0.00 | 1.47 | 0.00 | 94 | 1011.4 |
| 20260510034606 | 47 | 264 | 0.0 | 2.0 | 0.00 | 1.47 | 0.00 | 94 | 1011.5 |
| 20260510033122 | 47 | 281 | 0.0 | 4.0 | 0.00 | 1.47 | 0.00 | 94 | 1011.4 |
| 20260510031631 | 47 | 251 | 1.0 | 5.0 | 0.00 | 1.47 | 0.00 | 95 | 1011.5 |
| 20260510030119 | 47 | 267 | 2.0 | 4.0 | 0.00 | 1.47 | 0.00 | 94 | 1011.5 |
| 20260510024632 | 48 | 262 | 1.0 | 4.0 | 0.00 | 1.47 | 0.00 | 94 | 1011.7 |
| 20260510023134 | 48 | 342 | 1.0 | 4.0 | 0.00 | 1.47 | 0.00 | 94 | 1011.7 |
| 20260510021647 | 48 | 253 | 0.0 | 4.0 | 0.00 | 1.47 | 0.00 | 94 | 1011.8 |
| 20260510020151 | 48 | 277 | 0.0 | 2.0 | 0.00 | 1.47 | 0.00 | 94 | 1011.9 |
| 20260510014624 | 48 | 280 | 0.0 | 3.0 | 0.00 | 1.47 | 0.00 | 94 | 1011.8 |
| 20260510013103 | 49 | 268 | 2.0 | 3.0 | 0.00 | 1.47 | 0.00 | 94 | 1011.9 |
| 20260510011622 | 49 | 268 | 0.0 | 4.0 | 0.00 | 1.47 | 0.00 | 94 | 1012.0 |
| 20260510010108 | 49 | 263 | 3.0 | 6.0 | 0.00 | 1.47 | 0.00 | 94 | 1012.1 |
| 20260510004622 | 49 | 187 | 1.0 | 2.0 | 0.00 | 1.47 | 0.00 | 93 | 1012.4 |
| 20260510003126 | 49 | 291 | 2.0 | 3.0 | 0.00 | 1.47 | 0.00 | 93 | 1012.4 |
| 20260510000156 | 50 | 266 | 0.0 | 3.0 | 0.00 | 1.47 | 0.00 | 93 | 1012.5 |
| 20260509234556 | 50 | 262 | 1.0 | 2.0 | 0.00 | 1.47 | 0.00 | 92 | 1012.6 |
| 20260509233100 | 51 | 262 | 0.0 | 3.0 | 0.00 | 1.47 | 0.00 | 92 | 1012.7 |
| 20260509231630 | 51 | 271 | 1.0 | 2.0 | 0.00 | 1.47 | 0.00 | 92 | 1012.7 |
| 20260509230012 | 51 | 271 | 0.0 | 3.0 | 0.00 | 1.47 | 0.00 | 91 | 1012.8 |
| 20260509224515 | 52 | 185 | 1.0 | 4.0 | 0.00 | 1.47 | 0.00 | 91 | 1012.8 |
| 20260509223108 | 52 | 264 | 2.0 | 8.0 | 0.00 | 1.47 | 0.00 | 91 | 1012.9 |
| 20260509221629 | 52 | 248 | 3.0 | 7.0 | 0.00 | 1.47 | 0.00 | 91 | 1012.9 |
| 20260509220004 | 53 | 221 | 2.0 | 3.0 | 0.00 | 1.47 | 1.47 | 91 | 1012.9 |
| 20260509214624 | 53 | 247 | 2.0 | 7.0 | 0.00 | 1.47 | 1.47 | 91 | 1012.9 |
| 20260509211518 | 52 | 261 | 4.0 | 8.0 | 0.00 | 1.47 | 1.47 | 94 | 1013.1 |
| 20260509210024 | 52 | 215 | 0.0 | 2.0 | 0.00 | 1.47 | 1.47 | 93 | 1013.2 |
| 20260509204549 | 52 | 214 | 2.0 | 4.0 | 0.00 | 1.47 | 1.47 | 93 | 1013.1 |
| 20260509201519 | 51 | 256 | 2.0 | 4.0 | 0.00 | 1.47 | 1.47 | 93 | 1012.7 |